Regional Weather Roundup
Issued by NWS

Home | Current Version | Previous Version | Graphics & Text | Print | Product List | Glossary On
Versions: 1 2 3 4 5 6 7 8 9 10 11 12 13 14 15 16 17 18 19 20 21 22 23 24 25 26 27 28 29 30 31 32 33 34 35 36 37 38 39 40 41 42 43 44 45 46 47 48 49 50
000
ASUS43 KIND 051859
RWRIN

WEATHER ROUNDUP FOR INDIANA
NATIONAL WEATHER SERVICE INDIANAPOLIS IN
200 PM EST MON DEC 05 2016

NOTE: "FAIR" INDICATES FEW OR NO CLOUDS BELOW 12,000 FEET WITH NO
SIGNIFICANT WEATHER AND/OR OBSTRUCTIONS TO VISIBILITY.

* - STATION DOES NOT REPORT WEATHER SUCH AS PRECIPITATION OR FOG.

+ - STATION NOT QUALITY CONTROLLED BY THE NATIONAL WEATHER SERVICE.
    USE DATA WITH CAUTION...ESPECIALLY DEWPOINT AND RELATIVE
    HUMIDITY OBSERVATIONS.

INZ001>003-010>013-019-020-052000-
NORTHWEST INDIANA

CITY           SKY/WX    TMP DP  RH WIND       PRES   REMARKS

$$

LMZ046-743>745-052000-
SOUTHERN LAKE MICHIGAN

STATION/POSITION TIME  TEMP    WIND        PRES    WAVE
                       AIR SEA DIR/SP/G            HT
                 (UTC) (F)     (DEG/KT/KT) (MB)    (FT)
BURNS HARBOR     1830   34     200/ 13/ 18 1017.9F

$$

INZ004-005-014>016-021>024-052000-
NORTH CENTRAL INDIANA

CITY           SKY/WX    TMP DP  RH WIND       PRES   REMARKS
ELKHART        CLOUDY    32  30  93 SW9       30.05F WCI  24
GOSHEN         CLOUDY    34  28  79 S9        30.05F WCI  27
SOUTH BEND     CLOUDY    32  30  92 S8        30.05F WCI  25

$$

INZ006>009-017-018-025>027-052000-
NORTHEAST INDIANA

CITY           SKY/WX    TMP DP  RH WIND       PRES   REMARKS
ANGOLA *+      CLOUDY    34  25  69 SW8       30.06F WCI  27
FORT WAYNE     CLOUDY    35  30  82 SW9       30.08F WCI  28
KENDALLVILLE + CLOUDY    33  30  88 SW6       30.06F WCI  27

$$

INZ028-029-035-036-043>045-051>053-052000-
WEST CENTRAL INDIANA

CITY           SKY/WX    TMP DP  RH WIND       PRES   REMARKS
CRAWFORDSVL +  MOSUNNY   39  34  83 SE6       30.04S
GREENCASTLE +  SUNNY     41  36  81 SE8       30.04F
LAFAYETTE      PTSUNNY   38  34  85 E5        30.05F
TERRE HAUTE    SUNNY     42  33  70 SE8       30.04F

$$

INZ030>032-037>040-046>048-054>057-064-065-052000-
CENTRAL INDIANA

CITY           SKY/WX    TMP DP  RH WIND       PRES   REMARKS
ANDERSON       SUNNY     39  32  75 SE6       30.06F
COLUMBUS       SUNNY     41  36  81 SE6       30.06F
GREENWOOD *+   SUNNY     41  34  76 SE6       30.06F
INDIANAPOLIS   PTSUNNY   42  33  70 SE9       30.05F
-EAGLE CREEK   SUNNY     42  32  67 S7        30.05F
KOKOMO +       CLOUDY    40  33  76 S6        30.07F
SHELBYVILLE    MOSUNNY   43  34  70 E6        30.05F

$$

INZ033-034-041-042-049-050-058-059-052000-
EAST CENTRAL INDIANA

CITY           SKY/WX    TMP DP  RH WIND       PRES   REMARKS
MUNCIE         SUNNY     41  32  70 SE5       30.05F

$$

INZ060-061-067>069-081>083-085>088-052000-
SOUTHWEST INDIANA

CITY           SKY/WX    TMP DP  RH WIND       PRES   REMARKS
EVANSVILLE     CLOUDY    42  34  73 SE8       30.03F
HUNTINGBURG *+ CLOUDY    42  34  73 SE9       30.02F

$$

INZ062-063-066-070>080-084-089>092-052000-
SOUTH CENTRAL AND SOUTHEAST INDIANA

CITY           SKY/WX    TMP DP  RH WIND       PRES   REMARKS
BLOOMINGTON    SUNNY     42  31  64 SE8       30.03F
MADISON *+     MOSUNNY   45  32  61 E3        30.05F
SEYMOUR +      MOSUNNY   45  34  65 E3        30.04F

$$





USA.gov is the U.S. government's official web portal to all federal, state and local government web resources and services.